Charlottesville, VA

8:29 AM EDT on May 27, 2017 (GMT -0400)
Charlottesville-Albemarle

Weather History for KCHO - December, 2011

Change the Weather History Date:

Wednesday, December 28, 2011

  Actual Average Record
Temperature  
Mean Temperature 41 °F 36 °F  
Max Temperature 49 °F 44 °F 72 °F (1971)
Min Temperature 33 °F 27 °F 8 °F (1925)
Degree Days  
Heating Degree Days 24 30  
Month to date heating degree days 605 755  
Since 1 July heating degree days 1321 1646  
Cooling Degree Days 0 0  
Month to date cooling degree days 0 0  
Year to date cooling degree days 1603 1035  
Moisture  
Dew Point 21 °F    
Average Humidity 42    
Maximum Humidity 57    
Minimum Humidity 27    
Precipitation  
Precipitation 0.00 in 0.07 in 0.33 in (2015)
Month to date precipitation 4.36 2.96  
Year to date precipitation 48.31 42.52  
Sea Level Pressure  
Sea Level Pressure 29.82 in    
Wind  
Wind Speed 5 mph (WNW)    
Max Wind Speed 14 mph    
Max Gust Speed 24 mph    
Visibility 10 miles    
Events      
T = Trace of Precipitation, MM = Missing Value Source: NWS Daily Summary

Daily Weather History Graph

Daily Weather History Graph

Search for Another Location

Airport or City:

Trip Planner

Search our weather history database for the weather conditions in past years. The results will help you decide how hot, cold, wet, or windy it might be!

Date:

Astronomy

Dec. 28, 2011 Rise Set
Actual Time 7:29 AM EST 5:01 PM EST
Civil Twilight 6:59 AM EST 5:30 PM EST
Nautical Twilight 6:26 AM EST 6:04 PM EST
Astronomical Twilight 5:54 AM EST 6:36 PM EST
Moon 9:57 AM EST (12/28) 9:31 PM EST (12/28)
Length of Visible Light 10h 31m
Length of Day
9h 32m
Waxing Crescent, 18% of the Moon is Illuminated
Dec 28
Waxing Crescent
Jan 1
First Quarter
Jan 9
Full
Jan 16
Last Quarter
Jan 23
New

Hourly Weather History & Observations

Time (EST) Temp. Windchill Dew Point Humidity Pressure Visibility Wind Dir Wind Speed Gust Speed Precip Events Conditions
12:53 AM 44.1 °F - 28.0 °F 53% 29.57 in 10.0 mi Calm Calm - N/A   Clear
1:53 AM 43.0 °F - 28.0 °F 56% 29.58 in 10.0 mi Calm Calm - N/A   Mostly Cloudy
2:53 AM 42.8 °F 41.1 °F 28.4 °F 57% 29.61 in 10.0 mi Variable 3.5 mph - N/A   Mostly Cloudy
3:53 AM 44.1 °F 40.8 °F 27.0 °F 51% 29.64 in 10.0 mi Variable 5.8 mph 24.2 mph N/A   Overcast
4:53 AM 45.0 °F 42.6 °F 27.0 °F 49% 29.66 in 10.0 mi Variable 4.6 mph - N/A   Overcast
5:53 AM 45.0 °F 42.6 °F 26.1 °F 48% 29.69 in 10.0 mi Variable 4.6 mph - N/A   Overcast
6:53 AM 44.1 °F 42.5 °F 27.0 °F 51% 29.72 in 10.0 mi Variable 3.5 mph - N/A   Overcast
7:53 AM 44.1 °F 41.5 °F 26.1 °F 49% 29.75 in 10.0 mi Variable 4.6 mph - N/A   Mostly Cloudy
8:53 AM 45.0 °F 39.3 °F 28.0 °F 52% 29.78 in 10.0 mi WSW 11.5 mph - N/A   Scattered Clouds
9:53 AM 46.0 °F 39.9 °F 23.0 °F 40% 29.81 in 10.0 mi WSW 13.8 mph 23.0 mph N/A   Scattered Clouds
10:53 AM 46.0 °F 39.9 °F 24.1 °F 42% 29.83 in 10.0 mi WNW 13.8 mph 23.0 mph N/A   Partly Cloudy
11:53 AM 48.0 °F - 23.0 °F 37% 29.81 in 10.0 mi WNW 13.8 mph 20.7 mph N/A   Scattered Clouds
12:53 PM 48.0 °F - 21.0 °F 34% 29.81 in 10.0 mi WNW 11.5 mph 20.7 mph N/A   Partly Cloudy
1:53 PM 48.0 °F - 19.0 °F 32% 29.82 in 10.0 mi Variable 5.8 mph - N/A   Clear
2:53 PM 48.0 °F - 17.1 °F 29% 29.84 in 10.0 mi Variable 5.8 mph - N/A   Clear
3:53 PM 46.9 °F - 15.1 °F 28% 29.87 in 10.0 mi Variable 5.8 mph - N/A   Clear
4:53 PM 45.0 °F 39.3 °F 12.0 °F 26% 29.90 in 10.0 mi WNW 11.5 mph - N/A   Clear
5:53 PM 36.0 °F 31.1 °F 19.0 °F 50% 29.94 in 10.0 mi WNW 5.8 mph - N/A   Clear
6:53 PM 37.9 °F 35.5 °F 14.0 °F 38% 29.97 in 10.0 mi NW 3.5 mph - N/A   Clear
7:53 PM 37.0 °F - 15.1 °F 41% 29.99 in 10.0 mi Calm Calm - N/A   Clear
8:53 PM 36.0 °F - 15.1 °F 43% 30.00 in 10.0 mi Calm Calm - N/A   Clear
9:53 PM 37.0 °F - 14.0 °F 39% 30.01 in 10.0 mi Calm Calm - N/A   Clear
10:53 PM 37.0 °F - 17.1 °F 44% 30.02 in 10.0 mi Calm Calm - N/A   Clear
11:53 PM 33.1 °F - 19.0 °F 56% 30.02 in 10.0 mi Calm Calm - N/A   Clear